Dodge City, KS

4:27 PM CDT on October 23, 2017 (GMT -0500)
Dodge City Regional

Weather History for KDDC - December, 2012

Change the Weather History Date:

Friday, December 28, 2012

  Actual Average Record
Temperature  
Mean Temperature 18 °F -  
Max Temperature 27 °F 42 °F 70 °F (1999)
Min Temperature 9 °F 21 °F -11 °F (1894)
Degree Days  
Heating Degree Days 47    
Moisture  
Dew Point 8 °F    
Average Humidity 66    
Maximum Humidity 81    
Minimum Humidity 30    
Precipitation  
Precipitation 0.00 in - - ()
Sea Level Pressure  
Sea Level Pressure 30.12 in    
Wind  
Wind Speed 10 mph (NNW)    
Max Wind Speed 17 mph    
Max Gust Speed 24 mph    
Visibility 10 miles    
Events      
Averages and records for this station are not official NWS values.
T = Trace of Precipitation, MM = Missing Value Source: NWS Daily Summary

Daily Weather History Graph

Daily Weather History Graph

Search for Another Location

Airport or City:

Trip Planner

Search our weather history database for the weather conditions in past years. The results will help you decide how hot, cold, wet, or windy it might be!

Date:

Astronomy

Dec. 28, 2012 Rise Set
Actual Time 7:54 AM CST 5:29 PM CST
Civil Twilight 7:25 AM CST 5:58 PM CST
Nautical Twilight 6:52 AM CST 6:31 PM CST
Astronomical Twilight 6:20 AM CST 7:03 PM CST
Moon 6:06 PM CST (12/28) 7:50 AM CST (12/28)
Length of Visible Light 10h 33m
Length of Day
9h 34m
Full, 100% of the Moon is Illuminated
Dec 28
Full
Jan 4
Last Quarter
Jan 11
New
Jan 18
First Quarter
Jan 26
Full

Hourly Weather History & Observations

Time (CST) Temp. Windchill Dew Point Humidity Pressure Visibility Wind Dir Wind Speed Gust Speed Precip Events Conditions
12:47 AM 17.6 °F 7.3 °F 10.4 °F 73% 29.95 in 10.0 mi NNW 8.1 mph - N/A   Scattered Clouds
12:52 AM 16.0 °F 4.4 °F 10.9 °F 81% 30.04 in 10.0 mi NNW 9.2 mph - N/A   Partly Cloudy
1:52 AM 14.0 °F 2.0 °F 9.0 °F 80% 30.04 in 10.0 mi NNW 9.2 mph - N/A   Clear
2:52 AM 15.1 °F 1.1 °F 9.0 °F 77% 30.06 in 10.0 mi NNW 12.7 mph - N/A   Overcast
3:52 AM 14.0 °F 1.2 °F 8.1 °F 77% 30.07 in 10.0 mi NW 10.4 mph - N/A   Overcast
4:52 AM 14.0 °F 1.2 °F 8.1 °F 77% 30.08 in 10.0 mi NNW 10.4 mph - N/A   Overcast
5:52 AM 14.0 °F 0.5 °F 8.1 °F 77% 30.07 in 10.0 mi NNW 11.5 mph - N/A   Overcast
6:52 AM 10.0 °F -5.2 °F 5.0 °F 80% 30.09 in 10.0 mi NNW 12.7 mph - N/A   Clear
7:52 AM 8.6 °F -5.5 °F 3.2 °F 79% 29.98 in 10.0 mi NNW 10.4 mph - N/A   Clear
8:52 AM 10.0 °F -3.7 °F 3.9 °F 76% 30.11 in 10.0 mi NNW 10.4 mph - N/A   Clear
9:52 AM 16.0 °F 1.7 °F 6.1 °F 65% 30.12 in 10.0 mi NNW 13.8 mph - N/A   Clear
10:52 AM 19.0 °F 4.0 °F 7.0 °F 59% 30.14 in 10.0 mi NNW 17.3 mph 24.2 mph N/A   Clear
11:52 AM 21.0 °F 7.6 °F 7.0 °F 55% 30.13 in 10.0 mi NNW 15.0 mph 24.2 mph N/A   Clear
12:52 PM 24.1 °F 11.5 °F 8.1 °F 51% 30.11 in 10.0 mi NNW 15.0 mph - N/A   Clear
1:52 PM 25.0 °F 13.6 °F 7.0 °F 46% 30.09 in 10.0 mi NNW 12.7 mph 23.0 mph N/A   Clear
2:52 PM 27.0 °F 15.6 °F 8.1 °F 45% 30.09 in 10.0 mi NNW 13.8 mph 21.9 mph N/A   Clear
3:52 PM 27.0 °F 16.1 °F 8.1 °F 45% 30.09 in 10.0 mi NNW 12.7 mph 20.7 mph N/A   Clear
4:52 PM 25.0 °F 14.8 °F 9.0 °F 51% 30.12 in 10.0 mi NNW 10.4 mph - N/A   Clear
5:52 PM 19.0 °F 13.9 °F 8.1 °F 62% 30.15 in 10.0 mi NNW 3.5 mph - N/A   Clear
6:52 PM 15.1 °F 5.2 °F 7.0 °F 70% 30.18 in 10.0 mi North 6.9 mph - N/A   Clear
7:52 PM 12.9 °F 2.6 °F 6.1 °F 74% 30.20 in 10.0 mi North 6.9 mph - N/A   Clear
8:52 PM 12.0 °F 0.5 °F 6.1 °F 77% 30.22 in 10.0 mi WNW 8.1 mph - N/A   Clear
9:52 PM 10.9 °F 0.2 °F 6.1 °F 81% 30.22 in 10.0 mi WNW 6.9 mph - N/A   Clear
10:52 PM 12.9 °F 0.7 °F 8.1 °F 81% 30.22 in 10.0 mi WNW 9.2 mph - N/A   Clear
11:52 PM 18.0 °F 6.1 °F 10.9 °F 74% 30.23 in 10.0 mi WNW 10.4 mph - N/A   Clear